TimeCDT,TemperatureF,Dew PointF,Humidity,Sea Level PressureIn,VisibilityMPH,Wind Direction,Wind SpeedMPH,Gust SpeedMPH,PrecipitationIn,Events,Conditions,WindDirDegrees,DateUTC
12:15 AM,65.3,62.1,89,30.10,10.0,SSW,4.6,-,N/A,,Mostly Cloudy,200,2013-07-31 05:15:00
12:34 AM,64.6,61.9,91,30.10,10.0,SSW,4.6,-,N/A,,Scattered Clouds,210,2013-07-31 05:34:00
12:54 AM,64.4,61.9,92,30.10,7.0,SSW,5.8,-,N/A,,Clear,210,2013-07-31 05:54:00
1:15 AM,63.7,61.5,93,30.10,7.0,SW,4.6,-,N/A,,Clear,220,2013-07-31 06:15:00
1:54 AM,62.1,60.6,95,30.09,7.0,WSW,5.8,-,N/A,,Clear,240,2013-07-31 06:54:00
2:14 AM,62.2,60.3,93,30.10,10.0,WSW,5.8,-,N/A,,Clear,250,2013-07-31 07:14:00
2:34 AM,62.2,59.9,92,30.10,10.0,WSW,4.6,-,N/A,,Clear,250,2013-07-31 07:34:00
2:54 AM,61.9,59.9,93,30.10,10.0,West,5.8,-,N/A,,Clear,270,2013-07-31 07:54:00
3:14 AM,61.7,59.5,93,30.11,10.0,West,5.8,-,N/A,,Clear,260,2013-07-31 08:14:00
3:34 AM,61.3,59.4,93,30.11,10.0,West,4.6,-,N/A,,Clear,280,2013-07-31 08:34:00
3:53 AM,61.2,59.2,93,30.11,10.0,WSW,5.8,-,N/A,,Clear,240,2013-07-31 08:53:00
4:14 AM,60.8,58.6,93,30.10,10.0,West,4.6,-,N/A,,Clear,260,2013-07-31 09:14:00
4:34 AM,60.4,58.5,93,30.10,10.0,West,3.5,-,N/A,,Clear,270,2013-07-31 09:34:00
4:54 AM,59.9,58.1,94,30.10,10.0,West,3.5,-,N/A,,Clear,270,2013-07-31 09:54:00
5:14 AM,59.9,58.1,94,30.10,10.0,West,4.6,-,N/A,,Clear,280,2013-07-31 10:14:00
5:34 AM,60.4,58.3,93,30.10,10.0,West,3.5,-,N/A,,Clear,260,2013-07-31 10:34:00
5:54 AM,60.1,58.1,93,30.10,10.0,West,3.5,-,N/A,,Clear,260,2013-07-31 10:54:00
6:14 AM,60.4,58.3,93,30.11,10.0,West,3.5,-,N/A,,Scattered Clouds,260,2013-07-31 11:14:00
6:34 AM,60.4,58.5,93,30.12,10.0,WNW,4.6,-,N/A,,Mostly Cloudy,290,2013-07-31 11:34:00
6:55 AM,61.0,58.8,93,30.12,10.0,WNW,5.8,-,N/A,,Scattered Clouds,290,2013-07-31 11:55:00
7:14 AM,62.1,59.7,92,30.13,10.0,WNW,8.1,-,N/A,,Mostly Cloudy,290,2013-07-31 12:14:00
7:34 AM,62.8,59.9,90,30.12,10.0,NW,5.8,-,N/A,Rain,Light Rain,310,2013-07-31 12:34:00
7:54 AM,62.8,59.5,89,30.12,10.0,NNW,6.9,-,N/A,Rain,Rain,330,2013-07-31 12:54:00
8:14 AM,62.2,60.1,93,30.13,7.0,WNW,5.8,-,0.01,Rain,Rain,300,2013-07-31 13:14:00
8:34 AM,62.2,60.4,94,30.15,7.0,West,9.2,-,0.03,Rain,Light Rain,270,2013-07-31 13:34:00
8:55 AM,62.6,60.8,94,30.15,7.0,West,5.8,-,0.06,Rain,Light Rain,280,2013-07-31 13:55:00
9:15 AM,62.8,61.2,94,30.16,10.0,West,6.9,-,N/A,Rain,Light Rain,270,2013-07-31 14:15:00
9:34 AM,63.1,61.2,93,30.15,10.0,West,6.9,-,0.01,Rain,Light Rain,270,2013-07-31 14:34:00
9:54 AM,63.7,61.7,93,30.13,10.0,NW,3.5,-,0.02,Rain,Light Rain,320,2013-07-31 14:54:00
10:15 AM,64.9,62.6,92,30.12,10.0,SW,3.5,-,N/A,,Mostly Cloudy,220,2013-07-31 15:15:00
10:34 AM,68.0,63.5,85,30.12,10.0,West,3.5,-,N/A,,Scattered Clouds,270,2013-07-31 15:34:00
10:54 AM,70.0,62.8,78,30.13,10.0,NW,8.1,-,N/A,,Clear,320,2013-07-31 15:54:00
11:14 AM,70.2,61.9,75,30.14,10.0,NW,5.8,-,N/A,,Clear,320,2013-07-31 16:14:00
11:34 AM,72.0,62.6,72,30.14,10.0,NW,5.8,-,N/A,,Clear,310,2013-07-31 16:34:00
11:54 AM,73.2,62.1,68,30.14,10.0,WNW,8.1,-,N/A,,Clear,300,2013-07-31 16:54:00
12:15 PM,74.1,61.2,64,30.13,10.0,WNW,9.2,-,N/A,,Clear,300,2013-07-31 17:15:00
12:34 PM,75.4,59.0,57,30.13,10.0,West,6.9,-,N/A,,Clear,280,2013-07-31 17:34:00
12:54 PM,76.6,57.0,51,30.13,10.0,NW,8.1,-,N/A,,Clear,320,2013-07-31 17:54:00
1:14 PM,76.8,58.6,53,30.12,10.0,NW,8.1,-,N/A,,Clear,320,2013-07-31 18:14:00
1:34 PM,77.5,58.6,52,30.12,10.0,WNW,6.9,-,N/A,,Clear,290,2013-07-31 18:34:00
1:54 PM,78.8,58.5,50,30.12,10.0,WNW,3.5,-,N/A,,Clear,290,2013-07-31 18:54:00
2:14 PM,77.5,58.5,52,30.12,10.0,North,4.6,-,N/A,,Clear,350,2013-07-31 19:14:00
2:35 PM,79.3,56.7,46,30.11,10.0,WNW,4.6,-,N/A,,Clear,300,2013-07-31 19:35:00
2:54 PM,78.4,57.6,49,30.11,10.0,NNW,3.5,-,N/A,,Scattered Clouds,330,2013-07-31 19:54:00
3:14 PM,80.6,57.0,44,30.10,10.0,WNW,8.1,-,N/A,,Scattered Clouds,290,2013-07-31 20:14:00
3:35 PM,82.6,53.6,37,30.10,10.0,WNW,10.4,19.6,N/A,,Mostly Cloudy,300,2013-07-31 20:35:00
3:54 PM,81.1,52.9,37,30.10,10.0,NW,10.4,20.7,N/A,,Scattered Clouds,310,2013-07-31 20:54:00
4:14 PM,81.3,52.5,37,30.09,10.0,NW,11.5,16.1,N/A,,Scattered Clouds,320,2013-07-31 21:14:00
4:34 PM,81.5,51.6,35,30.09,10.0,WNW,11.5,-,N/A,,Scattered Clouds,300,2013-07-31 21:34:00
4:54 PM,80.2,50.7,36,30.09,10.0,NW,10.4,18.4,N/A,,Scattered Clouds,310,2013-07-31 21:54:00
5:14 PM,80.8,53.1,38,30.08,10.0,NW,10.4,16.1,N/A,,Scattered Clouds,320,2013-07-31 22:14:00
5:34 PM,77.9,54.1,44,30.07,10.0,WNW,9.2,-,N/A,,Scattered Clouds,300,2013-07-31 22:34:00
5:55 PM,78.6,52.5,40,30.07,10.0,WNW,10.4,-,N/A,,Clear,300,2013-07-31 22:55:00
6:14 PM,76.1,54.7,47,30.07,10.0,WNW,6.9,-,N/A,,Scattered Clouds,300,2013-07-31 23:14:00
6:34 PM,79.3,54.5,42,30.06,10.0,NW,6.9,-,N/A,,Scattered Clouds,320,2013-07-31 23:34:00
6:55 PM,78.4,55.2,45,30.06,10.0,NW,6.9,-,N/A,,Scattered Clouds,320,2013-07-31 23:55:00
7:15 PM,75.6,55.9,50,30.06,10.0,NW,4.6,-,N/A,,Scattered Clouds,310,2013-08-01 00:15:00
7:34 PM,76.1,56.5,50,30.06,10.0,NNW,3.5,-,N/A,,Scattered Clouds,330,2013-08-01 00:34:00
7:54 PM,74.7,57.0,54,30.06,10.0,NNW,3.5,-,N/A,,Scattered Clouds,340,2013-08-01 00:54:00
8:14 PM,73.0,56.1,55,30.06,10.0,NNW,3.5,-,N/A,,Scattered Clouds,330,2013-08-01 01:14:00
8:34 PM,70.2,56.8,63,30.06,10.0,NW,3.5,-,N/A,,Scattered Clouds,320,2013-08-01 01:34:00
8:54 PM,68.9,57.0,66,30.06,10.0,NNW,3.5,-,N/A,,Clear,330,2013-08-01 01:54:00
9:14 PM,66.7,56.3,69,30.07,10.0,NW,3.5,-,N/A,,Scattered Clouds,320,2013-08-01 02:14:00
9:34 PM,66.0,57.6,74,30.08,10.0,WNW,3.5,-,N/A,,Scattered Clouds,300,2013-08-01 02:34:00
9:54 PM,64.2,58.1,80,30.09,10.0,West,3.5,-,N/A,,Scattered Clouds,260,2013-08-01 02:54:00
10:14 PM,63.0,57.6,82,30.09,10.0,West,4.6,-,N/A,,Scattered Clouds,260,2013-08-01 03:14:00
10:34 PM,61.3,57.2,86,30.09,10.0,West,3.5,-,N/A,,Clear,260,2013-08-01 03:34:00
10:54 PM,60.8,56.1,85,30.09,10.0,WSW,4.6,-,N/A,,Clear,250,2013-08-01 03:54:00
11:14 PM,60.6,55.4,83,30.09,10.0,WSW,4.6,-,N/A,,Clear,250,2013-08-01 04:14:00
11:34 PM,59.0,54.9,86,30.09,10.0,WSW,4.6,-,N/A,,Clear,250,2013-08-01 04:34:00
11:55 PM,59.4,55.0,86,30.10,10.0,WSW,4.6,-,N/A,,Clear,240,2013-08-01 04:55:00